Location: Bouysse
(45.3674°N, 1.8947°E)
Time: 08:03:35
(UTC+00:00)

BREEZE-M R/B - Pass Details

Date: 07 June 2020
Orbit: 311 x 4533 km, 49.7° (Epoch: 14 July)

Event Time Altitude Azimuth Distance (km) Brightness Sun altitude
Rises 00:25:04 0° 262° (W) 4,875 7.5 -21.4°
Reaches altitude 10° 00:29:19 10° 266° (W) 3,200 6.5 -21.3°
Maximum altitude 00:36:06 56° 344° (NNW) 806 3.8 -21.1°
Drops below altitude 10° 00:39:34 10° 65° (ENE) 1,650 5.7 -21.0°
Sets 00:41:10 0° 70° (ENE) 2,334 6.5 -20.9°
